This is the latest recevied weather packets stored in our database for station/object KB7KFC-3. If no packets are shown the sender has not sent any weather packets the latest 10 day(s).
| Time | Temp. | Humidity | Pressure | Rain* | Wind** | Luminosity | Snow |
|---|---|---|---|---|---|---|---|
| 1778085604 | 22.22° C | 30% | 1017.5 hPa | 0 mm | - | - | - |
| 1778085425 | 22.22° C | 30% | 1017.4 hPa | 0 mm | - | - | - |
| 1778085245 | 21.67° C | 30% | 1017.5 hPa | 0 mm | - | - | - |
| 1778085064 | 21.67° C | 29% | 1017.5 hPa | 0 mm | - | - | - |
| 1778084886 | 22.22° C | 32% | 1017.5 hPa | 0 mm | - | - | - |
| 1778084705 | 21.67° C | 31% | 1017.4 hPa | 0 mm | - | - | - |
| 1778084525 | 21.67° C | 30% | 1017.5 hPa | 0 mm | - | - | - |
| 1778084345 | 21.67° C | 31% | 1017.5 hPa | 0 mm | - | - | - |
| 1778084164 | 21.67° C | 31% | 1017.5 hPa | 0 mm | - | - | - |
| 1778083985 | 21.11° C | 31% | 1017.5 hPa | 0 mm | - | - | - |
| 1778083804 | 21.11° C | 31% | 1017.6 hPa | 0 mm | - | - | - |
| 1778083625 | 21.11° C | 31% | 1017.6 hPa | 0 mm | - | - | - |
| 1778083444 | 21.11° C | 33% | 1017.6 hPa | 0 mm | - | - | - |
| 1778083264 | 21.11° C | 35% | 1017.6 hPa | 0 mm | - | - | - |
| 1778083085 | 20.56° C | 34% | 1017.7 hPa | 0 mm | - | - | - |
| 1778082905 | 20.56° C | 34% | 1017.6 hPa | 0 mm | - | - | - |
| 1778082724 | 20.56° C | 35% | 1017.6 hPa | 0 mm | - | - | - |
| 1778082545 | 20.56° C | 36% | 1017.6 hPa | 0 mm | - | - | - |
| 1778082364 | 20.56° C | 34% | 1017.7 hPa | 0 mm | - | - | - |
| 1778082184 | 20° C | 34% | 1017.7 hPa | 0 mm | - | - | - |
| 1778082005 | 20° C | 35% | 1017.7 hPa | 0 mm | - | - | - |
| 1778081824 | 19.44° C | 35% | 1017.7 hPa | 0 mm | - | - | - |
| 1778081645 | 19.44° C | 35% | 1017.6 hPa | 0 mm | - | - | - |
| 1778081465 | 19.44° C | 37% | 1017.6 hPa | 0 mm | - | - | - |
| 1778081285 | 19.44° C | 38% | 1017.6 hPa | 0 mm | - | - | - |
* Rain latest hour (hover to see other rain measurements)
** Current wind speed in m/s (hover to see current wind gust speed)